ICEYE-X49 (62384 NORAD) Tracking and Keplerian Element Data

This shows tracking and keplerian element data for the satellite.

Feedback or suggestion? Click here.




ElementValue
Catalog62384
NameICEYE-X49
Epoch Orbit678
Epoch Day34.3056647
Epoch Year2025
RAAN126.9791
Inclination44.9985
Eccentricity0.0002449
Argument of Perigee300.9945
Mean Anonmoly59.0689
Mean Motion15.05968683
Decay Rate0.00011856
L11 62384U 24247H 25034.30566470 .00011856 00000+0 81626-3 0 9993
L22 62384 44.9985 126.9791 0002449 300.9945 59.0689 15.05968683 6787



Live tracking and technical data element details for ICEYE-X49 (NORAD 62384). ICEYE-X49 can be tracked NOW for your location showing map with azimuth and elevation plus other details from your city location.







IsCatalogInMostPopularTable: catalog: 62384, numindb: 24
Update: records affected: 1



GetName: 62384 ICEYE-X49

Hit Count: updated at: Mon, 19 May 2025 02:50:13 GMT